Temp
-6 -6 -6 -6 -7 -6 -6 -6 -6 -6 -6 -6 -6 -6 -6 -6 -6 -5 -5 -5 -5 -5 -4 -4 -5 -5 -5 -5 -5 -5 -5 -5 -6 -6 -6 -6 -6 -6 -6 -6 -6 -7 -7
-6 -6 -6 -6 -6 -6 -6 -6 -6 -6 -6 -6 -6 -6 -6 -6 -6 -6 -5 -5 -5 -5 -5 -4 -5 -5 -5 -5 -5 -5 -5 -6 -6 -6 -6 -6 -6 -6 -6 -6 -6 -7 -7
-6 -7 -6 -6 -7 -7 -7 -6 -6 -6 -7 -6 -6 -6 -6 -6 -6 -6 -6 -5 -5 -5 -5 -5 -5 -5 -5 -5 -5 -5 -5 -6 -6 -6 -6 -6 -6 -6 -6 -7 -7 -7 -7
-6 -6 -7 -7 -7 -7 -7 -7 -7 -7 -7 -7 -7 -6 -6 -6 -6 -6 -6 -6 -5 -5 -5 -5 -5 -5 -5 -5 -5 -5 -5 -6 -6 -6 -6 -6 -7 -7 -7 -7 -7 -7 -7
-6 -7 -7 -7 -7 -7 -7 -7 -7 -7 -7 -7 -7 -7 -7 -6 -6 -6 -6 -6 -6 -6 -5 -5 -5 -5 -5 -5 -5 -5 -5 -5 -5 -6 -6 -6 -6 -6 -7 -7 -7 -7 -7
-6 -7 -7 -7 -7 -7 -7 -7 -7 -6 -7 -7 -7 -7 -7 -7 -7 -6 -6 -6 -6 -6 -6 -5 -5 -5 -5 -5 -5 -5 -5 -5 -5 -6 -6 -6 -6 -7 -7 -7 -7 -7 -7
-6 -7 -7 -7 -7 -7 -7 -7 -7 -7 -7 -7 -7 -8 -7 -8 -7 -7 -7 -7 -6 -6 -6 -6 -6 -6 -6 -5 -6 -5 -5 -6 -6 -6 -6 -6 -6 -6 -7 -7 -7 -7 -7
-7 -7 -7 -7 -7 -7 -7 -7 -7 -7 -7 -7 -7 -7 -8 -8 -8 -8 -7 -7 -7 -7 -6 -6 -6 -6 -6 -6 -6 -6 -6 -6 -6 -6 -6 -6 -6 -6 -6 -7 -7 -7 -7
-7 -7 -7 -7 -7 -7 -7 -7 -7 -7 -7 -7 -7 -7 -7 -8 -8 -8 -8 -7 -7 -7 -7 -7 -6 -6 -6 -6 -6 -6 -6 -6 -6 -6 -6 -6 -6 -6 -6 -7 -7 -7 -7
-7 -7 -8 -8 -8 -7 -7 -7 -7 -7 -7 -7 -7 -7 -7 -7 -8 -9 -8 -8 -7 -7 -7 -7 -7 -7 -7 -6 -6 -6 -6 -6 -6 -6 -6 -6 -6 -6 -6 -7 -7 -7 -7
-7 -7 -7 -8 -8 -8 -8 -7 -8 -8 -8 -8 -8 -7 -7 -7 -8 -8 -9 -8 -8 -8 -8 -8 -8 -7 -7 -7 -7 -7 -7 -6 -6 -6 -6 -6 -6 -6 -6 -7 -7 -7 -7
-8 -8 -8 -8 -8 -8 -8 -8 -8 -8 -8 -8 -8 -7 -7 -8 -8 -8 -9 -9 -9 -9 -8 -8 -8 -7 -7 -7 -7 -7 -7 -7 -7 -7 -7 -7 -6 -7 -7 -7 -7 -7 -7
-9 -9 -9 -8 -8 -8 -8 -8 -8 -8 -8 -8 -8 -8 -8 -8 -8 -8 -8 -9 -9 -9 -9 -9 -8 -8 -8 -8 -8 -8 -7 -7 -7 -7 -7 -7 -7 -7 -7 -7 -7 -7 -7
-9 -9 -9 -9 -9 -9 -9 -9 -9 -9 -8 -9 -8 -8 -8 -8 -8 -8 -8 -8 -9 -9 -9 -9 -9 -9 -8 -8 -8 -8 -8 -8 -8 -7 -7 -7 -7 -7 -7 -7 -7 -7 -7
-9 -9 -9 -9 -9 -9 -9 -9 -9 -9 -9 -8 -8 -9 -9 -9 -9 -8 -9 -9 -9 -9 -9 -9 -9 -9 -9 -9 -9 -9 -9 -8 -8 -8 -8 -8 -8 -8 -8 -8 -8 -8 -8
-9 -10 -10 -9 -9 -9 -9 -9 -9 -9 -9 -9 -8 -8 -9 -9 -9 -9 -9 -9 -9 -9 -9 -9 -8 -9 -9 -9 -9 -9 -9 -9 -9 -9 -9 -9 -8 -8 -8 -8 -8 -8 -8
-10 -10 -10 -10 -10 -9 -9 -10 -10 -10 -10 -10 -10 -9 -8 -9 -9 -9 -10 -10 -9 -9 -9 -9 -9 -9 -9 -9 -9 -9 -10 -10 -9 -10 -9 -9 -9 -9 -9 -9 -8 -9 -8
-10 -10 -10 -10 -10 -10 -9 -10 -10 -10 -10 -10 -10 -10 -9 -9 -9 -9 -10 -10 -10 -9 -9 -9 -9 -9 -9 -9 -9 -9 -10 -10 -10 -10 -10 -10 -10 -10 -9 -9 -9 -9 -9
-11 -10 -10 -10 -10 -10 -10 -10 -10 -10 -10 -10 -10 -10 -10 -10 -10 -10 -10 -10 -10 -10 -10 -10 -9 -9 -9 -10 -10 -9 -10 -10 -10 -10 -10 -10 -10 -10 -11 -10 -10 -10 -10
-11 -11 -11 -11 -11 -11 -11 -11 -10 -10 -10 -11 -11 -11 -11 -11 -10 -10 -10 -10 -10 -10 -10 -10 -10 -10 -10 -10 -10 -10 -10 -10 -10 -10 -10 -10 -11 -11 -11 -11 -10 -10 -10
-11 -11 -11 -12 -11 -12 -12 -11 -11 -11 -11 -11 -11 -11 -12 -12 -11 -11 -10 -10 -11 -10 -10 -10 -10 -10 -10 -10 -10 -10 -10 -10 -10 -10 -10 -10 -11 -11 -11 -10 -11 -11 -11
-11 -11 -11 -12 -12 -12 -12 -12 -12 -12 -12 -12 -11 -11 -11 -12 -12 -11 -11 -11 -10 -11 -11 -11 -11 -10 -10 -10 -10 -10 -10 -10 -10 -10 -10 -11 -11 -11 -11 -11 -11 -11 -11
-12 -12 -13 -13 -13 -13 -13 -13 -13 -13 -13 -12 -12 -12 -12 -12 -13 -12 -12 -12 -11 -11 -11 -11 -11 -10 -10 -10 -10 -10 -10 -10 -11 -10 -10 -11 -11 -11 -11 -11 -11 -11 -10
-15 -15 -15 -15 -15 -15 -15 -14 -14 -14 -13 -13 -13 -13 -13 -13 -13 -13 -13 -12 -12 -11 -11 -11 -11 -11 -10 -10 -10 -10 -10 -10 -10 -10 -10 -11 -11 -11 -11 -11 -11 -11 -11
-17 -17 -17 -17 -16 -16 -16 -16 -15 -15 -15 -15 -15 -14 -14 -14 -14 -13 -13 -13 -12 -12 -12 -11 -11 -11 -11 -10 -10 -10 -10 -10 -10 -10 -10 -11 -11 -11 -11 -12 -12 -12 -12
-18 -18 -18 -18 -18 -17 -16 -16 -15 -15 -15 -15 -15 -15 -15 -15 -14 -14 -14 -13 -13 -12 -12 -11 -11 -11 -11 -11 -10 -11 -11 -11 -10 -10 -10 -11 -12 -12 -12 -12 -11 -13 -13
Height
5861 5862 5862 5863 5864 5866 5867 5867 5869 5871 5872 5872 5873 5874 5874 5875 5875 5876 5876 5875 5875 5874 5874 5875 5873 5872 5872 5872 5871 5872 5872 5873 5873 5874 5874 5875 5875 5874 5874 5873 5872 5871 5870
5860 5860 5860 5860 5861 5863 5865 5866 5867 5868 5870 5871 5872 5873 5873 5873 5874 5874 5875 5874 5874 5874 5873 5873 5873 5872 5872 5872 5871 5871 5871 5872 5872 5873 5873 5874 5874 5874 5873 5873 5872 5871 5870
5857 5858 5858 5859 5860 5861 5862 5863 5865 5866 5867 5868 5869 5870 5871 5872 5872 5872 5873 5873 5873 5873 5872 5872 5872 5872 5871 5871 5871 5871 5870 5871 5871 5871 5872 5872 5872 5872 5872 5872 5872 5871 5870
5853 5855 5856 5856 5858 5859 5860 5861 5861 5863 5864 5866 5867 5868 5868 5870 5871 5871 5871 5872 5872 5872 5871 5871 5870 5871 5871 5870 5870 5870 5870 5870 5870 5870 5870 5871 5871 5871 5871 5871 5870 5870 5869
5851 5852 5852 5853 5855 5857 5858 5858 5859 5859 5861 5862 5863 5864 5866 5867 5868 5869 5869 5870 5870 5871 5871 5870 5870 5869 5869 5869 5869 5869 5869 5870 5870 5869 5869 5869 5870 5870 5869 5869 5869 5868 5868
5848 5849 5849 5850 5852 5853 5855 5856 5856 5856 5857 5858 5860 5861 5863 5864 5866 5867 5867 5867 5868 5868 5869 5868 5868 5868 5868 5868 5868 5867 5868 5868 5868 5868 5868 5867 5867 5867 5867 5867 5867 5867 5866
5844 5846 5846 5847 5849 5850 5851 5852 5853 5853 5854 5854 5856 5857 5859 5861 5863 5864 5864 5864 5865 5865 5866 5866 5866 5866 5866 5866 5866 5866 5865 5865 5866 5866 5866 5866 5865 5865 5865 5864 5864 5864 5864
5838 5841 5843 5844 5846 5847 5849 5849 5850 5850 5851 5851 5851 5852 5854 5857 5859 5860 5861 5861 5862 5862 5862 5863 5864 5864 5864 5864 5864 5864 5863 5863 5863 5863 5863 5863 5863 5862 5862 5862 5861 5861 5861
5832 5834 5836 5839 5841 5843 5844 5845 5846 5847 5848 5848 5849 5849 5850 5851 5853 5855 5856 5858 5859 5859 5859 5860 5860 5861 5861 5862 5862 5862 5862 5861 5861 5860 5860 5860 5860 5860 5859 5859 5858 5858 5857
5826 5828 5830 5833 5835 5837 5839 5841 5842 5842 5843 5845 5845 5846 5847 5847 5848 5850 5851 5853 5855 5855 5856 5856 5857 5857 5857 5858 5858 5858 5858 5858 5858 5858 5858 5857 5857 5857 5857 5856 5856 5855 5854
5819 5822 5823 5825 5829 5831 5832 5834 5837 5838 5839 5840 5841 5842 5843 5843 5843 5844 5847 5848 5850 5851 5852 5853 5853 5853 5854 5854 5855 5855 5855 5855 5855 5855 5854 5853 5853 5853 5853 5852 5852 5851 5851
5813 5814 5816 5818 5819 5823 5825 5828 5829 5831 5833 5835 5835 5836 5837 5838 5838 5839 5841 5843 5845 5846 5846 5848 5849 5850 5851 5851 5851 5851 5851 5851 5851 5851 5850 5850 5849 5848 5848 5847 5847 5846 5845
5806 5807 5809 5811 5812 5814 5817 5820 5822 5823 5825 5828 5830 5831 5832 5832 5834 5834 5836 5837 5838 5839 5841 5842 5843 5844 5845 5846 5846 5847 5847 5847 5846 5846 5846 5845 5844 5844 5843 5842 5842 5841 5840
5799 5799 5800 5802 5804 5806 5808 5811 5814 5816 5818 5821 5822 5824 5828 5827 5828 5829 5830 5830 5832 5833 5835 5835 5836 5837 5838 5839 5840 5841 5842 5842 5842 5841 5841 5840 5839 5839 5838 5838 5837 5835 5835
5792 5792 5793 5794 5796 5798 5800 5802 5805 5807 5810 5813 5815 5816 5819 5821 5822 5822 5824 5825 5826 5826 5827 5828 5829 5830 5831 5832 5833 5835 5836 5836 5835 5836 5835 5835 5835 5834 5833 5833 5832 5831 5829
5782 5784 5785 5787 5788 5789 5791 5792 5795 5798 5801 5804 5806 5808 5810 5813 5816 5817 5817 5818 5819 5820 5820 5821 5823 5823 5824 5825 5826 5827 5828 5829 5829 5829 5829 5829 5829 5828 5827 5826 5826 5824 5823
5773 5774 5775 5778 5779 5781 5782 5783 5785 5788 5791 5795 5798 5800 5801 5803 5806 5809 5811 5812 5812 5813 5813 5814 5815 5816 5817 5818 5819 5819 5820 5821 5821 5822 5822 5822 5822 5821 5820 5819 5819 5818 5816
5762 5763 5763 5765 5768 5771 5772 5773 5775 5778 5780 5783 5787 5790 5792 5793 5796 5799 5803 5805 5806 5805 5806 5808 5808 5809 5809 5811 5812 5812 5811 5811 5813 5813 5813 5813 5813 5813 5813 5812 5811 5811 5809
5749 5749 5750 5751 5754 5757 5760 5762 5765 5768 5770 5771 5775 5778 5781 5783 5786 5790 5793 5796 5798 5799 5799 5800 5801 5802 5803 5804 5804 5805 5805 5805 5804 5805 5805 5804 5805 5805 5804 5803 5802 5802 5801
5735 5735 5735 5736 5738 5741 5745 5748 5752 5755 5759 5761 5763 5767 5770 5773 5776 5780 5783 5786 5789 5791 5791 5791 5793 5794 5795 5797 5796 5797 5797 5797 5797 5797 5797 5795 5795 5795 5794 5793 5793 5791 5790
5719 5720 5720 5720 5721 5724 5728 5732 5737 5741 5746 5749 5752 5755 5759 5762 5764 5767 5771 5775 5778 5781 5782 5784 5784 5785 5787 5786 5787 5790 5788 5789 5787 5788 5787 5785 5786 5785 5784 5783 5782 5781 5780
5698 5699 5700 5701 5702 5706 5710 5714 5719 5726 5730 5735 5739 5743 5746 5749 5751 5755 5758 5762 5768 5770 5773 5775 5776 5777 5778 5779 5778 5778 5778 5780 5780 5778 5777 5776 5776 5774 5775 5773 5771 5770 5768
5676 5676 5677 5677 5681 5685 5689 5694 5702 5709 5713 5720 5726 5730 5733 5735 5739 5745 5748 5751 5755 5758 5763 5765 5767 5768 5768 5769 5770 5769 5768 5769 5768 5768 5768 5766 5767 5766 5764 5763 5762 5759 5755
5652 5653 5653 5656 5659 5665 5670 5677 5684 5689 5697 5704 5709 5713 5717 5720 5727 5732 5736 5740 5744 5747 5751 5755 5757 5758 5758 5759 5760 5761 5758 5757 5757 5757 5756 5756 5754 5755 5753 5753 5752 5749 5745
5632 5634 5635 5639 5643 5649 5654 5660 5665 5672 5680 5687 5691 5696 5702 5710 5714 5719 5725 5729 5733 5737 5741 5744 5746 5748 5749 5750 5750 5750 5749 5747 5746 5745 5745 5746 5742 5742 5742 5742 5740 5737 5737
5617 5620 5624 5627 5631 5635 5639 5644 5650 5658 5665 5671 5677 5683 5689 5697 5703 5708 5713 5718 5723 5728 5731 5733 5736 5738 5740 5741 5741 5739 5738 5736 5736 5733 5733 5734 5731 5732 5730 5731 5731 5730 5731
Wind_Speed
11 13 19 25 29 27 25 22 19 18 16 13 11 9 8 8 9 7 5 3 3 3 3 0 2 4 4 3 1 3 5 6 6 5 6 6 6 6 8 10 12 13 11
12 12 14 18 23 29 30 27 23 21 19 17 15 12 12 10 9 10 9 7 5 5 4 2 2 1 2 2 1 2 4 6 7 7 7 7 7 6 7 9 11 12 11
18 15 14 12 14 20 26 30 28 25 21 19 19 18 15 14 11 11 12 10 9 7 7 6 5 4 2 1 1 1 3 5 7 8 8 8 7 7 8 9 9 11 12
22 21 19 16 15 14 16 23 29 30 27 24 22 22 21 18 16 14 14 13 12 11 9 9 8 7 6 3 2 2 3 5 7 8 9 9 9 9 10 10 10 10 11
26 23 21 19 16 14 13 14 16 24 31 31 27 25 24 23 20 18 16 15 14 13 12 11 11 9 9 8 5 4 4 5 6 8 9 10 10 11 12 12 12 12 12
29 27 25 23 20 17 16 17 17 16 17 26 32 30 26 25 24 21 21 17 17 16 15 14 12 12 12 12 10 8 7 6 7 9 10 11 12 13 14 15 15 14 15
34 32 30 27 25 22 21 20 19 20 18 16 18 27 30 28 26 25 23 21 18 20 19 17 14 13 14 15 15 13 11 10 9 10 11 12 13 15 16 17 17 17 17
37 35 34 32 29 27 25 24 23 23 22 20 18 19 23 29 29 27 25 24 21 21 21 22 20 17 15 16 17 17 16 14 13 13 13 14 15 15 17 18 19 19 19
40 39 38 36 35 31 30 29 27 27 26 25 22 21 21 24 29 30 29 27 27 25 24 24 24 24 22 19 18 19 20 19 18 17 17 17 17 17 18 19 20 21 21
42 42 41 39 38 37 34 32 32 31 29 27 27 24 23 24 27 31 31 30 30 30 28 26 25 25 25 25 23 21 21 22 23 22 20 20 20 21 21 21 22 22 22
43 42 43 42 41 39 38 36 34 34 33 30 28 26 26 26 27 29 31 33 31 30 30 30 29 28 27 26 27 26 23 23 24 25 25 25 24 24 24 24 23 24 24
44 43 45 44 43 41 41 40 40 39 36 35 32 31 32 28 28 28 28 32 33 33 34 33 32 32 31 29 29 29 28 27 26 26 27 28 28 28 28 28 27 26 27
45 45 45 46 46 45 43 43 42 43 41 40 38 35 35 33 30 30 27 29 31 33 35 36 36 35 35 33 32 31 30 31 31 30 29 29 30 31 31 31 30 29 29
35 39 44 47 48 48 47 46 44 44 44 41 40 40 38 38 34 33 30 30 30 30 33 36 38 38 38 36 35 34 33 33 33 34 33 32 32 32 33 33 33 32 32
40 40 40 41 45 48 50 49 48 47 46 48 47 45 41 41 37 36 35 35 34 32 32 34 36 38 39 40 38 37 36 36 36 36 36 37 36 35 35 35 35 35 35
45 44 43 43 44 44 46 49 51 51 50 50 51 52 49 45 42 41 39 35 36 38 35 36 37 37 38 40 41 40 40 39 39 39 38 38 40 40 39 38 37 38 38
49 50 48 45 44 47 47 46 48 51 52 53 52 53 54 53 51 45 44 39 37 38 37 37 37 39 39 38 40 42 42 42 42 42 41 41 41 43 43 42 41 40 41
54 54 55 54 51 50 50 50 50 49 50 54 55 55 56 57 57 53 46 44 43 38 38 37 37 36 37 40 41 42 42 42 41 42 44 44 44 45 46 46 45 45 45
57 59 60 60 59 56 56 56 53 53 51 51 54 57 58 60 59 57 53 47 46 45 42 41 42 39 39 39 38 39 40 38 39 44 42 44 47 51 49 50 49 48 49
60 60 62 64 63 62 60 61 61 59 55 54 54 56 60 61 62 61 59 54 49 49 47 45 42 44 45 44 43 41 42 40 43 47 47 50 50 48 48 51 51 54 54
66 66 67 67 68 68 67 67 66 65 61 60 57 56 59 61 64 65 63 59 56 54 52 49 47 47 46 47 44 43 46 44 45 42 47 50 53 48 53 51 61 60 56
74 75 75 75 74 75 74 72 72 70 69 67 65 62 61 63 66 67 66 64 60 59 54 54 52 52 52 50 49 49 51 47 47 47 46 49 48 49 48 49 55 59 61
81 81 81 79 80 77 76 76 74 72 72 71 70 65 62 63 66 66 66 65 63 62 60 57 57 56 55 53 51 53 53 52 50 50 49 50 51 49 48 48 48 48 48
65 69 70 72 72 71 69 70 70 70 68 67 67 66 67 65 62 64 64 65 64 63 60 58 56 54 55 55 53 54 57 59 57 56 52 51 54 55 57 56 47 49 44
57 56 54 56 58 63 64 63 63 62 58 62 64 65 63 62 59 59 61 61 63 61 60 58 56 56 55 54 54 56 60 63 61 58 54 52 56 58 55 44 42 32 27
38 46 48 48 48 50 54 58 60 59 57 55 60 63 60 58 56 54 54 59 58 58 57 57 56 54 54 55 56 61 63 62 61 59 55 48 45 43 41 37 32 27 28
Wind_Direction
260 251 245 247 245 244 249 246 247 250 253 254 255 255 253 248 252 251 237 219 200 162 146 112 71 52 57 61 117 225 232 238 252 268 287 315 331 348 354 3 4 5 3
258 255 255 248 244 247 248 251 249 248 252 257 259 258 258 255 245 249 250 237 226 210 194 203 233 104 63 49 74 179 226 233 242 257 273 294 307 324 335 343 354 358 0
258 257 259 260 261 258 251 251 252 252 250 250 255 257 257 259 255 246 247 248 240 230 224 210 227 231 198 64 321 253 210 231 239 245 256 265 284 298 311 324 337 346 351
259 260 262 263 267 268 271 259 254 254 254 253 254 256 254 254 256 252 246 245 248 244 235 232 221 228 228 227 244 258 248 232 236 245 248 259 270 279 290 302 315 327 335
258 257 257 257 257 260 265 268 268 261 256 255 252 256 259 256 251 251 248 242 245 248 247 238 238 230 227 228 232 243 254 259 257 249 250 256 265 270 276 287 297 307 315
256 258 258 257 255 254 253 256 265 267 267 260 257 256 258 261 258 252 253 244 244 249 249 247 245 246 239 233 230 232 236 247 255 260 259 258 262 268 273 278 285 292 298
255 256 257 259 258 256 254 253 255 263 264 258 262 260 257 259 263 260 253 251 239 243 249 250 248 247 248 243 239 236 237 242 250 258 262 265 266 269 272 275 279 285 292
255 254 255 257 258 259 259 259 257 257 262 262 254 258 259 259 259 260 257 251 245 242 245 251 252 252 252 252 249 246 242 240 245 251 259 263 266 270 272 275 279 281 285
254 254 254 256 258 257 255 254 256 259 261 265 266 263 259 255 255 252 253 255 254 247 245 248 251 252 253 255 256 255 253 250 248 250 255 261 265 268 271 275 278 280 282
253 256 257 256 256 258 258 256 253 254 257 260 262 264 266 262 257 255 255 250 255 256 250 248 249 253 254 254 255 257 257 256 253 254 257 261 266 271 273 275 279 282 284
253 255 257 258 257 256 254 254 256 255 254 256 259 261 267 263 259 257 254 256 252 253 255 256 255 254 255 255 256 257 260 261 262 260 258 258 261 266 272 274 277 281 284
253 254 256 258 258 256 256 254 252 254 257 255 253 253 259 262 259 258 258 256 259 258 257 258 260 262 262 261 260 259 260 262 265 266 264 264 264 265 268 271 275 277 282
254 254 255 257 258 258 256 255 254 253 255 257 255 252 253 260 261 258 254 258 259 257 258 262 262 261 260 260 262 264 264 264 263 264 266 266 267 269 270 271 273 277 279
254 256 255 256 257 257 258 257 255 254 253 254 255 257 256 257 260 260 253 251 256 261 261 261 262 263 262 261 261 263 265 267 267 267 266 268 269 271 273 275 276 276 278
253 252 253 254 256 257 258 258 257 255 253 253 256 258 259 260 258 256 257 258 259 258 260 259 260 263 265 264 264 264 264 265 267 268 268 269 271 273 275 277 278 279 279
254 255 252 251 254 257 258 258 257 257 256 253 253 256 258 257 259 260 258 256 260 258 257 260 260 259 262 265 266 267 265 263 265 267 268 271 272 273 273 275 277 278 279
254 256 255 252 251 253 256 258 259 257 257 256 254 253 254 257 256 258 259 257 256 257 256 259 263 263 261 262 265 265 267 268 265 267 270 271 273 274 273 275 275 277 278
257 257 258 256 253 252 253 254 255 257 258 257 255 255 253 254 257 258 257 259 254 251 254 255 257 262 266 265 267 268 265 265 269 268 267 268 271 272 273 273 275 275 276
261 260 258 258 256 254 253 254 254 255 254 256 256 255 255 254 254 257 257 256 255 251 252 258 254 258 264 267 270 271 274 270 269 273 271 271 272 272 270 273 275 276 276
261 261 261 260 258 257 255 254 254 254 255 255 257 255 254 255 255 255 255 255 253 255 257 259 259 260 262 266 271 270 275 274 272 272 271 272 271 278 282 265 269 273 275
261 259 259 259 260 258 257 255 254 255 255 255 257 258 256 253 254 254 254 254 253 253 254 257 262 264 268 270 273 275 275 274 279 277 279 276 275 274 278 279 268 270 273
263 261 260 260 259 259 257 255 254 255 255 255 255 258 257 253 251 252 254 255 252 252 256 257 263 266 268 271 274 275 277 279 283 280 275 275 271 274 280 286 287 285 276
263 261 260 258 258 256 255 255 255 254 254 254 255 256 257 254 252 251 252 255 256 254 256 262 264 266 268 270 273 275 275 278 282 281 279 275 272 275 278 287 287 286 289
260 258 258 257 256 255 255 255 253 251 249 249 250 250 249 250 251 250 250 252 256 258 259 261 265 267 269 270 272 274 275 278 280 279 280 276 273 272 277 282 284 284 283
257 251 250 252 253 253 253 253 250 250 248 246 244 244 244 247 249 251 250 251 252 257 260 261 263 266 267 269 271 271 274 277 278 280 278 273 273 275 280 277 279 287 280
266 248 248 251 252 250 246 247 247 246 243 241 243 242 243 245 247 250 251 249 251 253 257 260 262 264 267 269 270 270 274 278 279 278 275 274 275 277 275 273 273 270 274